Terug naar catalogus

HAWK-3B

ActiefWetenschapPO
NORAD 48931·PAYLOAD·🇺🇸 United States

Gelanceerd Jun 30, 2021 vanaf Cape Canaveral Space Force Station

Loading…

Volgende Passages (komende 24 uur)

TLE

VersSource: Space-Track

Epoch: Sep 14, 2026, 08:47 UTC

1 48931U 21059BE  26257.36647962  .00051561  00000-0  31252-3 0  9991
2 48931  97.6553 103.0090 0003349   9.8927 350.2404 15.77414495291871

Volg HAWK-3B in realtime met AllMySat

Download on the App Store